Temp
61 61 61 61 61 61 61 61 61 61 61 61 62 62 62 62 61 60 60 73 74 75 75 82 81 80 80 75 78 76 59 60 61 67 73 84 79 91 96 91 95 91 85 85 80
60 61 61 61 60 60 60 60 60 61 61 61 61 62 62 62 59 63 74 76 74 75 79 76 73 76 68 70 72 67 57 62 72 76 74 80 81 86 87 89 89 86 90 90 89
60 60 60 60 60 60 59 60 60 60 61 61 61 61 61 61 59 70 76 76 75 75 80 79 79 75 66 69 70 70 64 72 77 80 79 78 81 85 83 79 85 86 87 91 89
60 60 60 60 60 59 59 60 60 61 61 61 61 61 61 61 56 74 75 75 75 78 77 75 72 63 63 64 72 64 75 77 78 83 79 78 82 81 81 80 92 93 93 91 87
59 59 59 59 59 59 59 59 60 60 60 60 61 61 58 59 64 76 75 75 76 77 75 72 68 66 63 66 70 67 72 78 80 79 79 81 80 78 79 86 91 95 93 89 87
58 59 59 59 59 59 59 59 59 59 60 61 61 61 59 57 82 80 79 77 80 76 77 75 72 75 70 69 66 73 73 75 77 76 76 76 78 77 81 85 88 89 87 86 86
58 58 58 58 59 59 59 59 58 59 61 62 61 65 65 65 85 83 82 79 83 83 78 80 81 73 72 68 74 74 66 73 75 74 72 77 73 73 81 85 84 84 83 89 86
58 57 58 58 58 59 59 58 59 61 63 62 62 64 57 83 84 83 84 84 87 86 85 85 83 75 69 72 73 66 63 55 68 75 78 70 63 76 82 79 80 83 84 86 86
57 57 57 58 58 58 58 57 59 64 63 62 59 59 62 84 84 88 86 84 85 86 84 92 79 70 71 61 55 59 53 57 64 75 74 70 64 76 81 81 77 79 80 83 82
57 57 57 57 58 57 56 58 63 60 62 69 73 62 70 76 86 89 89 88 83 81 78 74 67 61 59 54 48 52 54 58 62 71 71 68 70 77 79 81 80 79 78 81 84
57 57 57 57 57 56 55 64 61 58 62 65 69 72 81 88 91 85 87 84 81 73 61 68 56 51 58 63 65 64 61 59 65 72 65 65 65 70 78 79 73 75 76 76 84
57 57 57 57 57 56 52 62 70 71 62 76 75 77 83 86 79 83 87 73 70 62 66 62 55 65 70 70 67 66 61 59 66 72 67 64 65 70 72 72 74 75 75 76 75
56 56 57 56 56 57 66 73 81 77 59 70 77 76 79 83 77 77 82 76 68 63 64 58 64 74 71 68 66 63 59 60 60 67 68 63 61 64 72 73 76 78 77 77 77
56 56 56 56 59 68 69 79 80 76 49 63 73 77 81 81 73 86 86 77 69 64 66 63 71 71 69 67 68 58 68 68 66 59 49 62 49 58 65 69 72 73 75 76 77
55 56 56 55 55 62 75 79 76 69 37 74 75 86 82 74 76 78 85 76 66 66 66 62 65 66 65 68 72 64 71 67 65 58 49 54 46 53 63 63 67 75 77 81 83
55 56 55 63 55 67 77 77 70 49 41 68 75 72 70 75 76 78 76 77 74 66 66 65 74 70 69 73 73 74 68 64 58 52 45 51 51 55 56 63 68 73 71 78 85
55 55 54 64 62 76 77 67 47 42 70 66 68 73 68 68 71 73 68 63 55 50 51 61 64 71 74 65 69 66 53 42 39 39 42 55 53 57 64 70 71 71 68 73 76
54 53 59 68 72 75 68 54 39 58 62 69 67 68 63 67 68 68 63 57 62 57 50 49 49 64 68 63 55 57 50 43 34 36 45 57 51 56 67 71 69 75 72 72 72
53 62 65 71 76 71 57 43 47 57 62 60 63 59 59 64 61 61 59 58 57 56 46 46 50 63 68 66 62 56 48 58 47 46 41 47 53 61 61 61 62 59 59 56 63
50 56 66 76 74 64 51 48 57 64 63 61 53 58 50 55 55 55 56 61 59 60 57 51 40 59 62 64 64 57 61 46 45 34 32 43 46 46 48 50 54 54 54 57 58
52 56 68 75 70 57 46 53 59 66 63 56 53 52 53 51 53 52 54 56 59 57 57 51 45 46 55 52 48 49 46 48 48 46 34 32 40 50 47 49 51 54 55 53 53
53 50 71 71 53 55 52 58 56 61 60 59 58 55 52 52 48 50 50 55 60 57 50 50 42 35 44 55 60 56 50 48 37 36 41 37 37 54 50 51 53 52 55 55 56
47 54 69 66 45 46 53 56 61 57 56 55 53 55 54 50 43 51 53 59 60 57 49 49 38 28 36 46 53 49 53 51 45 40 36 31 38 54 53 51 52 51 55 55 58
50 48 57 57 56 49 47 50 51 61 57 58 54 55 50 48 51 47 51 59 59 56 57 52 39 36 28 37 45 43 48 51 45 32 36 38 43 51 50 48 49 54 56 55 52
52 50 51 45 48 50 49 49 49 49 57 56 51 52 49 43 47 47 52 53 54 55 51 44 34 39 43 46 48 46 46 48 44 44 37 42 43 48 52 49 51 53 54 56 57
49 47 51 48 51 50 48 47 48 49 49 47 45 50 50 44 45 41 45 46 44 50 43 43 33 38 37 44 46 43 46 47 47 48 46 46 45 55 56 57 54 56 55 55 57
55 55 49 47 48 47 47 48 49 49 51 52 50 48 46 48 51 49 48 47 46 42 40 39 34 31 28 42 41 33 42 46 46 48 46 40 46 52 52 55 56 56 57 57 59
MSLP
1019.01 1018.50 1018.04 1017.55 1017.12 1016.72 1016.32 1016.00 1015.68 1015.45 1015.21 1014.99 1014.85 1014.69 1014.48 1014.28 1013.93 1013.50 1012.25 1009.77 1009.43 1009.26 1009.47 1009.36 1009.19 1009.07 1009.01 1009.03 1008.75 1008.57 1009.43 1009.13 1008.49 1007.49 1005.34 1003.57 1003.45 1002.28 1001.67 1001.30 1001.87 1001.97 1003.62 1003.81 1004.81
1019.25 1018.71 1018.21 1017.63 1017.08 1016.61 1016.17 1015.81 1015.49 1015.22 1014.95 1014.78 1014.65 1014.56 1014.45 1014.33 1013.72 1011.98 1009.11 1008.82 1008.85 1009.04 1009.31 1009.31 1009.27 1009.17 1009.37 1008.73 1008.60 1008.52 1008.73 1008.21 1007.55 1006.69 1005.50 1004.01 1003.63 1003.07 1002.09 1001.61 1002.46 1002.62 1002.59 1003.19 1003.94
1019.36 1018.75 1018.14 1017.53 1016.95 1016.40 1015.91 1015.47 1015.15 1014.89 1014.59 1014.44 1014.42 1014.36 1014.31 1014.28 1013.36 1009.43 1007.37 1008.32 1008.77 1008.91 1008.97 1009.01 1008.91 1009.03 1009.24 1008.80 1008.39 1008.15 1008.07 1007.44 1006.62 1005.85 1005.05 1004.31 1003.44 1003.04 1002.76 1002.36 1002.08 1002.43 1002.52 1003.70 1003.95
1019.38 1018.77 1018.11 1017.47 1016.85 1016.27 1015.75 1015.29 1014.87 1014.57 1014.39 1014.24 1014.25 1014.21 1014.26 1014.05 1011.78 1008.16 1007.97 1008.07 1008.50 1008.76 1008.96 1008.83 1008.92 1009.02 1008.91 1008.83 1007.95 1007.81 1007.17 1006.57 1005.96 1005.21 1004.73 1004.36 1003.77 1003.21 1002.97 1002.61 1001.59 1003.33 1003.26 1003.49 1003.94
1019.39 1018.73 1018.04 1017.37 1016.74 1016.13 1015.62 1015.15 1014.75 1014.44 1014.19 1014.07 1014.03 1014.15 1014.13 1013.27 1009.96 1008.13 1008.21 1008.53 1008.63 1008.66 1008.72 1008.78 1008.71 1008.67 1008.41 1008.10 1007.74 1007.34 1006.87 1005.98 1005.23 1004.85 1004.53 1004.06 1003.63 1003.47 1002.99 1002.23 1002.34 1002.59 1002.92 1003.04 1003.37
1019.37 1018.61 1017.89 1017.15 1016.50 1015.97 1015.41 1014.90 1014.50 1014.25 1013.96 1013.83 1013.94 1014.08 1013.77 1011.71 1007.05 1007.14 1007.74 1008.43 1008.30 1008.21 1008.18 1008.20 1008.03 1007.67 1007.67 1007.59 1007.48 1006.93 1006.39 1005.71 1005.07 1004.63 1004.29 1004.04 1003.63 1003.39 1003.07 1002.21 1001.94 1002.45 1002.62 1002.86 1003.17
1019.30 1018.59 1017.77 1016.98 1016.31 1015.76 1015.21 1014.66 1014.28 1013.96 1013.64 1013.47 1013.64 1013.56 1012.53 1009.13 1006.66 1006.75 1007.23 1007.39 1007.31 1007.60 1007.59 1007.35 1007.17 1007.38 1007.29 1007.39 1006.67 1006.61 1006.59 1005.70 1005.03 1004.59 1004.30 1003.98 1003.65 1003.41 1003.10 1002.66 1002.15 1002.20 1002.61 1002.48 1002.81
1019.13 1018.37 1017.59 1016.87 1016.09 1015.51 1015.03 1014.50 1014.01 1013.70 1013.53 1013.57 1013.71 1013.18 1011.00 1006.94 1006.33 1006.89 1006.97 1006.69 1006.59 1006.67 1006.67 1006.59 1006.57 1007.01 1007.27 1007.19 1007.00 1007.03 1006.54 1006.07 1005.24 1004.65 1004.21 1004.26 1003.79 1003.11 1002.91 1003.12 1002.80 1002.28 1002.43 1002.57 1002.35
1018.87 1018.09 1017.37 1016.65 1015.85 1015.11 1014.56 1013.89 1013.41 1013.33 1013.44 1013.57 1013.63 1012.56 1009.23 1006.03 1005.87 1005.63 1005.75 1006.13 1006.14 1006.16 1006.35 1006.35 1006.49 1007.09 1007.45 1007.75 1007.93 1007.49 1007.13 1006.31 1005.50 1004.55 1004.29 1004.10 1003.75 1003.16 1002.54 1002.72 1002.83 1002.54 1002.42 1002.43 1002.45
1018.98 1018.08 1017.21 1016.33 1015.57 1014.92 1014.01 1012.83 1012.65 1013.09 1013.20 1013.05 1012.11 1011.66 1008.18 1005.57 1004.90 1005.01 1005.17 1005.47 1005.75 1005.94 1006.44 1006.67 1007.05 1007.34 1007.57 1007.97 1007.84 1007.67 1007.01 1006.17 1005.41 1004.48 1003.99 1003.75 1003.30 1002.65 1002.17 1002.13 1002.21 1002.32 1002.21 1002.28 1002.17
1018.87 1017.93 1017.05 1016.04 1015.19 1014.91 1014.02 1012.52 1012.90 1012.61 1011.89 1010.43 1009.19 1007.69 1005.69 1004.72 1004.03 1004.75 1004.92 1005.22 1005.61 1006.02 1006.69 1006.83 1007.54 1007.47 1007.29 1007.13 1007.13 1006.93 1006.46 1005.97 1005.04 1004.21 1004.12 1003.79 1003.35 1002.73 1001.74 1001.46 1001.77 1001.96 1002.06 1001.94 1001.64
1018.74 1017.78 1016.74 1015.65 1014.56 1014.20 1014.54 1013.05 1010.57 1010.18 1009.05 1008.11 1007.07 1006.28 1005.39 1004.63 1004.29 1004.07 1004.51 1005.34 1005.80 1006.37 1006.66 1007.03 1006.89 1006.71 1006.43 1006.18 1006.15 1006.10 1005.91 1005.53 1004.77 1004.04 1003.81 1003.73 1003.38 1002.50 1001.98 1001.55 1001.25 1001.43 1001.65 1001.58 1001.36
1018.71 1017.68 1016.63 1015.34 1013.85 1012.99 1012.53 1011.04 1009.44 1009.19 1009.03 1006.06 1004.70 1004.05 1004.20 1004.14 1003.65 1003.80 1004.15 1004.69 1005.62 1006.31 1006.53 1006.61 1005.92 1005.67 1005.44 1005.19 1005.11 1005.02 1005.14 1005.06 1004.86 1004.35 1003.82 1004.04 1003.34 1002.71 1001.77 1001.45 1001.19 1000.77 1000.75 1000.95 1001.01
1018.81 1017.75 1016.58 1015.50 1013.66 1012.65 1011.22 1009.68 1009.23 1009.30 1008.88 1004.98 1002.65 1001.87 1002.73 1003.07 1003.27 1003.25 1003.28 1004.26 1005.15 1005.78 1006.12 1005.87 1005.24 1004.84 1004.56 1004.38 1004.24 1004.18 1004.21 1004.37 1004.62 1004.65 1004.75 1004.60 1003.94 1003.53 1002.57 1001.83 1001.25 1000.92 1001.06 1000.54 1000.42
1018.52 1017.72 1016.58 1016.66 1014.94 1013.10 1010.57 1009.55 1009.49 1009.81 1008.53 1002.51 1001.93 1001.12 1001.76 1002.77 1002.57 1002.84 1002.87 1003.81 1004.87 1005.48 1005.95 1005.36 1005.01 1004.58 1004.15 1003.71 1003.38 1003.36 1003.57 1004.14 1004.53 1004.79 1005.14 1005.22 1005.01 1003.55 1002.98 1002.57 1001.72 1000.95 1000.51 1000.08 999.81
1017.95 1017.04 1016.63 1014.28 1014.78 1011.77 1010.50 1009.85 1009.89 1010.28 1007.19 1002.89 1002.20 1002.17 1002.48 1002.78 1002.97 1002.98 1003.47 1004.17 1004.83 1005.57 1005.74 1005.39 1004.80 1004.49 1004.06 1003.55 1003.35 1003.33 1003.49 1003.93 1004.46 1005.23 1005.35 1005.67 1005.09 1003.73 1003.51 1002.46 1001.68 1000.95 1000.90 1000.09 999.40
1017.53 1015.97 1015.84 1014.53 1012.61 1010.72 1010.36 1010.41 1010.76 1009.29 1005.45 1003.89 1003.33 1002.80 1003.19 1003.37 1003.35 1003.33 1004.09 1004.77 1005.58 1006.15 1006.29 1005.75 1005.07 1004.48 1004.53 1003.90 1003.32 1003.65 1004.44 1005.33 1005.97 1005.98 1005.53 1005.72 1004.91 1004.11 1003.43 1002.41 1001.69 1001.39 1001.00 1000.19 1000.29
1017.10 1014.96 1013.34 1012.63 1011.44 1010.93 1011.07 1011.21 1010.76 1008.43 1006.86 1006.00 1005.55 1004.70 1004.65 1004.69 1004.37 1004.40 1004.85 1005.56 1006.02 1007.09 1007.59 1007.07 1005.96 1005.51 1005.91 1006.07 1006.29 1005.60 1006.21 1007.03 1006.77 1006.76 1006.32 1005.74 1004.63 1004.31 1004.53 1003.79 1002.55 1001.71 1001.21 1001.17 1000.92
1016.67 1014.06 1012.83 1011.44 1011.21 1011.18 1011.81 1011.59 1009.99 1009.15 1008.88 1008.03 1006.97 1006.46 1006.27 1006.35 1006.37 1005.97 1006.43 1007.16 1008.24 1008.70 1009.41 1008.91 1007.54 1006.96 1007.31 1007.35 1007.49 1006.97 1006.94 1007.19 1007.30 1007.33 1007.05 1006.44 1005.42 1004.62 1005.14 1005.78 1005.42 1005.15 1004.76 1004.87 1004.72
1017.59 1015.02 1012.46 1010.99 1010.92 1011.37 1012.13 1011.53 1010.59 1010.22 1010.01 1009.48 1008.93 1008.76 1008.69 1008.63 1008.61 1008.42 1008.40 1008.94 1009.45 1010.16 1010.46 1010.91 1010.24 1008.93 1008.15 1008.23 1007.83 1008.81 1008.46 1008.07 1009.08 1009.27 1008.72 1007.65 1007.18 1007.05 1007.82 1008.36 1008.73 1007.39 1007.05 1006.75 1006.51
1017.51 1015.01 1011.79 1010.79 1010.75 1011.59 1012.11 1011.81 1011.47 1011.08 1011.28 1010.99 1010.82 1010.79 1010.74 1010.71 1010.50 1010.42 1010.05 1010.66 1010.86 1011.41 1011.53 1012.02 1012.11 1011.39 1010.86 1010.40 1010.35 1009.87 1010.01 1010.48 1010.57 1011.07 1010.65 1009.78 1009.04 1008.61 1009.22 1009.17 1009.21 1009.45 1009.13 1008.94 1008.78
1018.38 1015.44 1011.82 1011.08 1011.83 1011.76 1012.25 1012.77 1012.55 1011.89 1012.37 1012.01 1011.82 1012.01 1012.03 1011.94 1011.83 1011.70 1011.56 1011.44 1012.10 1012.40 1012.59 1013.26 1013.33 1013.23 1012.75 1012.01 1011.15 1010.81 1010.91 1011.15 1011.49 1011.21 1011.07 1011.07 1010.32 1009.85 1010.29 1010.17 1010.09 1010.24 1009.90 1009.91 1009.94
1019.65 1015.98 1012.39 1012.01 1013.09 1013.83 1013.87 1013.59 1012.79 1012.59 1012.94 1013.23 1013.11 1013.15 1013.12 1012.89 1012.96 1012.38 1012.28 1012.05 1012.45 1012.97 1013.71 1014.21 1014.63 1014.56 1013.74 1012.75 1011.71 1011.47 1011.77 1011.62 1011.67 1011.73 1011.84 1011.92 1010.82 1010.30 1010.13 1010.61 1010.67 1010.96 1010.99 1010.63 1010.98
1020.54 1016.99 1014.42 1014.13 1014.41 1014.96 1014.78 1014.19 1013.77 1013.39 1013.59 1013.69 1014.11 1014.14 1014.09 1013.82 1013.61 1013.53 1013.19 1012.71 1013.21 1013.81 1014.53 1014.98 1015.97 1016.24 1015.94 1015.24 1014.15 1013.17 1012.54 1012.12 1012.21 1012.66 1012.34 1012.14 1011.20 1010.83 1011.02 1011.15 1010.92 1010.70 1010.89 1010.92 1012.22
1020.48 1018.20 1017.78 1016.50 1015.97 1015.96 1015.67 1015.38 1014.69 1014.17 1014.33 1014.67 1014.65 1014.52 1014.38 1014.37 1014.07 1013.98 1013.89 1013.82 1014.31 1014.88 1015.13 1016.05 1016.84 1016.87 1016.36 1015.61 1014.51 1013.63 1013.09 1012.69 1012.66 1012.64 1012.51 1011.84 1011.52 1011.07 1010.62 1010.44 1010.21 1010.04 1010.19 1010.68 1010.81
1020.50 1019.87 1018.87 1018.23 1017.08 1016.51 1015.98 1015.65 1015.37 1015.40 1015.78 1015.70 1015.80 1015.42 1015.01 1014.95 1015.37 1015.23 1015.20 1015.27 1015.17 1015.66 1015.82 1016.79 1017.43 1017.36 1016.94 1016.13 1015.05 1014.11 1013.48 1013.00 1012.81 1012.56 1012.25 1011.79 1011.09 1010.38 1009.89 1009.68 1009.62 1009.60 1010.03 1010.21 1010.16
1021.14 1020.63 1019.97 1018.65 1017.77 1016.97 1016.17 1016.04 1016.19 1016.26 1016.38 1016.30 1016.31 1016.01 1015.66 1015.83 1015.82 1015.73 1015.65 1015.78 1015.79 1015.88 1016.31 1016.92 1017.48 1017.84 1017.55 1016.58 1015.62 1014.55 1013.60 1013.04 1012.82 1012.62 1012.40 1012.26 1011.47 1010.66 1010.47 1009.98 1009.30 1009.05 1009.03 1009.19 1009.13
Wind_Speed
23 23 21 20 18 18 18 17 15 14 13 13 12 12 12 12 13 4 8 12 8 11 3 6 7 7 7 7 8 5 3 10 9 12 20 19 6 9 3 15 12 8 19 10 18
23 23 21 21 20 17 17 16 15 14 13 13 11 10 11 10 5 10 11 10 9 10 5 6 8 8 4 5 6 5 4 10 9 15 14 16 11 10 4 7 1 17 13 17 16
23 23 21 22 21 18 17 17 16 14 12 11 10 9 8 7 5 8 6 14 11 8 5 6 10 6 8 7 8 9 10 11 15 15 12 10 17 9 8 1 8 6 21 14 9
24 24 24 23 21 20 18 17 15 14 13 11 9 6 6 4 3 2 6 12 10 6 6 4 6 5 7 9 10 8 14 16 15 16 12 13 11 11 8 3 5 6 8 13 12
24 25 24 22 22 19 17 16 15 13 12 10 6 4 3 3 12 5 8 6 6 5 7 8 7 7 8 7 9 8 10 13 13 12 13 11 12 8 9 13 5 6 11 17 15
23 24 24 23 22 20 18 16 13 11 11 8 5 3 2 7 5 14 10 7 8 7 6 8 8 11 7 9 8 9 11 12 11 11 8 9 12 5 9 11 14 5 5 8 10
24 24 24 24 23 21 18 18 14 11 10 5 8 5 5 18 3 12 12 9 9 10 9 9 11 5 7 8 10 9 9 12 12 7 7 8 12 9 8 11 14 10 5 10 10
24 24 24 25 24 22 18 17 15 11 4 3 7 4 9 9 11 15 11 7 9 10 7 9 9 8 6 8 11 8 7 6 8 10 12 4 12 11 10 9 13 12 8 8 11
26 25 25 25 25 24 20 19 16 7 2 6 4 4 10 7 7 9 7 10 11 9 9 11 6 5 7 6 6 7 8 9 10 11 10 8 11 13 13 13 10 11 10 10 8
26 26 26 26 25 23 24 14 1 3 4 8 9 4 7 6 8 10 10 8 8 5 7 6 3 6 5 3 10 8 7 9 13 13 9 12 18 15 13 16 16 13 9 12 13
28 28 28 27 26 19 13 5 3 1 4 10 8 8 10 12 8 5 4 6 8 3 7 8 4 8 12 10 11 13 10 10 10 10 3 8 8 11 17 15 9 8 9 9 17
28 29 29 29 29 21 3 3 3 6 11 14 23 25 23 19 9 7 9 8 6 9 8 7 10 12 13 14 16 17 15 11 10 13 8 9 11 10 7 5 8 8 8 10 7
29 30 31 31 33 6 5 8 7 8 5 19 23 17 20 19 13 13 11 10 9 10 12 10 11 18 17 14 13 10 8 8 8 9 10 6 11 11 10 6 7 9 7 8 8
28 29 30 33 4 7 5 3 7 7 4 11 7 7 17 10 9 15 16 10 8 14 12 12 13 18 17 14 14 10 9 10 9 8 7 4 12 9 9 11 9 9 11 10 10
29 28 30 12 7 5 8 8 5 5 6 3 6 5 6 9 2 8 5 4 6 10 9 14 12 13 16 15 14 11 10 12 10 10 2 5 4 6 7 9 11 16 15 18 17
33 30 25 5 5 11 13 8 4 1 9 5 8 6 5 9 14 4 5 5 4 7 12 14 14 13 15 20 19 15 9 11 5 3 8 5 8 10 6 9 9 10 1 7 24
34 36 18 6 6 7 7 5 1 5 8 7 1 2 3 5 10 10 12 9 5 5 8 11 17 12 16 13 15 13 5 3 4 4 9 9 11 10 9 12 12 8 2 7 8
36 36 6 7 7 8 4 2 4 11 11 16 14 13 5 10 12 11 4 4 3 7 3 4 7 5 15 11 10 9 2 2 10 7 9 11 17 8 9 14 20 8 9 8 9
31 7 5 5 9 3 3 3 4 7 9 11 11 7 4 11 11 10 7 6 7 8 4 6 4 12 10 15 8 8 6 6 2 7 3 4 8 7 20 22 21 20 19 20 25
10 5 5 7 5 2 0 7 11 9 9 9 5 8 5 11 8 9 5 8 5 12 7 8 6 7 13 11 7 12 11 6 6 4 7 3 4 2 11 14 16 20 18 20 23
3 5 3 6 2 1 4 4 5 10 12 7 6 6 6 7 8 5 7 9 10 9 6 6 2 6 9 7 16 14 8 5 4 7 4 2 5 5 7 7 14 14 17 18 20
6 5 5 5 3 3 3 5 10 8 12 8 2 3 4 9 5 3 4 4 3 5 4 3 2 4 11 10 15 13 13 7 3 6 3 1 6 5 8 8 10 10 11 15 19
7 5 3 6 4 4 9 10 7 12 9 6 7 12 13 2 3 7 6 8 7 2 3 4 4 6 8 6 5 5 13 9 3 2 3 2 6 6 9 9 8 9 13 13 17
5 5 5 4 3 7 7 5 8 7 6 1 3 5 7 5 6 3 7 2 6 8 8 6 2 3 4 9 13 14 16 15 4 1 5 5 12 11 5 6 4 4 6 7 4
4 4 4 5 8 10 5 8 11 3 7 8 6 11 6 5 6 5 7 8 8 3 4 4 2 6 9 15 12 17 16 15 12 12 8 8 11 11 4 8 8 11 10 11 9
3 4 4 11 8 9 5 5 10 10 9 6 6 13 11 4 4 6 8 6 3 2 2 2 4 5 6 16 13 13 16 13 13 13 12 14 12 12 8 7 8 8 8 10 11
5 5 3 6 8 7 4 3 4 6 5 7 11 6 7 9 7 6 6 5 6 5 3 8 5 2 6 8 12 9 7 12 12 11 7 10 9 7 10 11 6 9 12 13 13
Wind_Direction
350 347 344 340 337 334 330 326 321 316 312 312 315 315 318 323 307 226 238 225 187 209 195 289 297 252 274 262 250 246 243 249 255 269 280 291 321 303 274 303 341 101 146 184 196
347 344 341 339 336 330 326 322 317 313 310 309 314 318 324 331 274 241 232 211 155 164 194 241 261 210 253 267 256 198 224 243 242 263 277 291 310 285 248 308 95 112 118 147 169
347 343 341 340 336 330 326 323 315 308 303 304 308 318 322 315 288 250 285 183 180 189 253 254 258 221 217 246 250 248 241 252 260 264 279 294 316 323 286 195 308 278 136 156 151
346 343 341 339 336 331 326 321 314 306 302 300 303 309 323 255 306 110 137 154 174 203 238 219 268 276 223 235 249 236 247 248 257 266 280 288 295 314 322 238 121 128 183 148 151
343 341 339 337 335 330 325 319 313 305 297 290 283 289 285 239 248 152 147 168 163 171 208 217 231 246 225 239 255 255 256 260 263 245 260 278 283 274 297 300 320 332 161 158 159
342 339 337 336 335 331 327 322 315 301 289 274 241 177 222 258 232 154 169 164 230 195 229 226 244 248 259 245 239 250 257 263 271 265 255 276 280 327 299 306 315 2 308 155 171
341 338 337 336 334 332 330 323 318 302 291 241 191 212 259 241 243 171 186 191 205 209 217 239 242 267 302 300 265 272 280 282 278 278 271 269 284 282 271 294 296 303 299 293 173
339 338 337 333 332 330 326 315 310 296 330 172 182 230 249 253 248 237 226 224 244 234 241 244 254 243 260 280 308 304 296 267 278 267 269 229 261 261 275 263 268 277 282 266 265
338 336 334 331 330 328 323 303 287 272 202 159 189 235 261 281 220 221 219 213 235 228 250 247 251 254 295 253 305 286 254 263 276 248 252 239 254 244 232 248 250 259 255 260 249
336 333 332 329 328 328 323 288 27 304 217 203 262 269 257 234 215 217 216 235 235 191 253 237 262 228 265 185 227 241 252 247 247 258 257 245 247 253 230 224 236 241 243 238 249
335 333 332 328 325 328 341 335 346 294 255 217 203 235 290 275 110 163 246 237 260 197 225 228 206 239 233 223 243 264 265 273 280 278 276 272 289 260 244 225 205 238 259 241 230
334 332 331 327 320 318 255 256 17 246 292 235 245 247 257 268 263 238 182 222 213 236 233 254 219 237 238 233 229 241 255 272 281 285 280 296 290 286 297 262 197 225 276 261 237
333 332 331 327 318 293 210 249 322 312 275 286 241 237 235 238 234 240 216 199 217 223 246 225 244 220 236 246 251 251 236 251 252 287 296 329 292 294 287 278 290 281 242 269 261
332 331 329 331 334 340 273 347 341 41 302 266 214 216 222 203 237 230 242 171 212 240 244 237 245 255 259 240 231 234 244 270 270 248 245 206 283 289 278 268 269 252 267 260 268
329 329 327 328 293 291 331 337 38 49 318 164 123 120 173 150 277 191 60 125 252 279 278 268 272 275 276 272 274 251 244 248 244 263 295 284 262 262 277 282 263 246 244 254 258
326 324 329 320 204 248 287 336 19 330 250 247 134 171 228 188 230 94 128 136 231 268 277 273 278 267 278 288 288 297 281 248 253 228 262 231 239 262 257 254 277 283 270 269 238
325 319 317 270 238 321 336 342 324 224 312 356 16 150 198 239 241 205 183 195 192 298 270 271 256 272 319 309 308 289 321 291 311 273 250 214 248 259 263 272 258 265 114 68 58
327 312 272 213 239 270 4 349 236 263 305 358 358 355 358 336 298 309 353 328 68 33 318 326 295 17 358 17 334 313 28 264 234 226 251 232 244 253 8 351 4 215 148 65 52
327 316 274 245 240 335 21 260 244 8 358 349 328 304 336 2 359 18 359 29 44 39 28 341 268 336 354 0 355 323 328 299 13 318 290 228 318 307 27 19 17 30 34 26 3
320 293 282 351 338 2 168 253 300 37 353 347 345 16 345 1 354 5 340 38 79 51 39 15 316 321 352 336 325 11 327 359 354 325 272 260 248 279 28 34 25 13 18 9 10
264 309 330 331 351 59 231 289 29 26 16 6 360 327 356 351 356 348 333 57 28 34 37 33 348 337 2 7 330 333 334 322 194 212 239 332 283 127 100 69 71 32 14 10 357
328 309 350 0 355 292 43 40 348 31 29 349 359 47 358 6 5 336 296 17 61 37 11 51 288 302 304 306 285 270 279 274 212 280 300 159 264 53 84 51 45 38 43 12 359
313 267 264 36 38 0 11 342 4 31 24 5 340 9 349 339 348 348 322 133 149 90 63 1 348 340 326 310 7 28 337 322 321 26 275 237 270 194 113 80 57 26 11 14 354
295 317 346 359 69 20 356 334 346 336 285 345 295 304 315 322 292 264 272 29 90 101 97 77 26 220 241 279 289 304 317 315 316 311 274 270 311 317 75 101 125 175 164 157 225
238 335 10 324 342 320 341 306 293 1 359 8 344 306 243 253 293 308 356 20 41 144 94 101 249 294 301 310 311 317 311 316 325 316 295 281 292 301 289 199 218 227 209 199 226
331 352 353 294 303 300 299 354 23 27 16 319 317 313 324 10 26 326 17 16 355 162 91 58 260 297 310 306 303 293 300 297 285 280 292 310 266 273 273 220 214 217 187 203 198
5 341 306 280 291 292 303 56 346 22 301 20 352 341 340 11 345 331 309 284 274 288 246 171 178 203 260 280 302 301 287 303 320 308 290 304 286 330 336 319 255 226 195 210 207